Location: Mississauga
(43.5802°N, 79.6166°W)
Time: 02:25:20
(UTC-04:00)

Cosmos 1437 Rocket - Visible Passes

Search period start: 24 July 2014 00:00
Search period end: 03 August 2014 00:00
Orbit: 527 x 567 km, 81.2° (Epoch: 23 July)

Date Brightness Start Highest point End Pass type
(mag) Time Alt. Az. Time Alt. Az. Time Alt. Az.
24 Jul 3.9 01:32:31 10° N 01:35:54 40° NE 01:35:54 40° NE visible
24 Jul 5.1 03:10:12 10° NW 03:11:33 14° WNW 03:11:33 14° WNW visible
25 Jul 3.9 01:27:20 10° N 01:30:35 41° NE 01:30:35 41° NE visible
25 Jul 5.2 03:05:14 10° NW 03:06:14 13° WNW 03:06:14 13° WNW visible
26 Jul 3.9 01:22:08 10° N 01:25:17 42° NE 01:25:17 42° NE visible
26 Jul 5.4 03:00:20 10° WNW 03:00:56 11° WNW 03:00:56 11° WNW visible
27 Jul 3.9 01:16:57 10° N 01:20:00 43° NNE 01:20:00 43° NNE visible
27 Jul 5.5 02:55:30 10° WNW 02:55:39 10° WNW 02:55:39 10° WNW visible
28 Jul 3.9 01:11:46 10° N 01:14:44 43° NNE 01:14:44 43° NNE visible
29 Jul 4.0 01:06:35 10° N 01:09:28 42° NNE 01:09:28 42° NNE visible
30 Jul 4.0 01:01:24 10° N 01:04:13 42° N 01:04:13 42° N visible
31 Jul 4.0 00:56:14 10° N 00:58:59 41° N 00:58:59 41° N visible
01 Aug 4.1 00:51:04 10° N 00:53:46 41° N 00:53:46 41° N visible
02 Aug 4.1 00:45:54 10° N 00:48:34 40° NNW 00:48:34 40° NNW visible
